Wind_Speed
43 40 40 40 40 41 42 43 43 44 45 46 46 45 45 45 46 47 47 47 47 47 47 47 46 47 47 46 45 45 44 43 42 41 41 41 41 42 42 42 42 42 42
41 40 39 38 39 40 40 40 41 42 42 42 42 43 43 44 44 44 45 46 46 46 46 46 45 45 44 43 43 43 43 43 42 41 40 41 41 41 42 42 42 42 42
40 38 37 38 38 37 37 38 39 39 40 40 40 40 41 42 43 42 42 43 44 44 44 44 43 43 42 40 41 41 42 42 41 40 40 40 40 40 42 42 42 42 42
38 37 37 37 37 37 37 37 37 37 37 38 39 39 39 40 40 41 41 41 41 42 42 42 42 41 41 40 40 40 41 40 39 39 39 39 39 39 41 41 42 42 42
38 37 36 36 36 36 37 37 37 36 35 36 37 38 38 38 38 38 39 39 39 40 41 41 41 40 40 41 41 40 39 38 39 39 38 38 38 39 40 41 42 41 41
37 36 36 36 36 35 36 36 36 36 35 35 36 36 36 36 36 36 37 37 37 38 39 40 39 39 39 38 38 37 36 37 38 38 37 38 39 39 40 40 40 40 40
36 35 36 36 36 36 36 35 34 35 34 34 34 34 34 34 35 35 34 34 35 36 37 37 36 37 37 37 35 36 37 37 37 37 38 39 39 38 38 38 39 39 39
35 35 34 34 34 34 34 33 33 32 33 33 33 33 33 33 34 35 34 34 35 35 35 34 34 35 35 35 35 36 36 36 36 36 36 36 35 35 35 36 37 37 38
34 34 33 32 31 31 31 32 31 31 32 33 33 33 34 34 34 34 34 33 33 33 33 34 34 34 33 33 34 33 33 34 34 33 33 32 32 33 34 35 35 36 36
32 31 31 30 29 29 29 29 29 28 28 29 29 30 31 31 31 31 31 31 31 31 31 31 31 32 32 32 32 32 32 32 31 32 32 31 32 33 33 33 33 34 34
30 29 28 28 28 28 28 28 28 27 27 27 27 28 28 29 30 30 30 30 30 30 29 29 29 30 30 30 30 30 30 30 30 31 31 32 32 32 32 31 30 31 31
27 26 26 25 25 25 25 26 27 27 26 26 27 27 26 27 27 27 28 28 27 27 28 28 28 28 28 28 28 28 28 29 29 30 31 31 31 30 30 29 28 28 29
24 24 24 23 23 23 24 25 26 25 25 25 26 26 25 25 25 25 25 26 27 26 27 27 27 27 27 27 27 27 27 28 29 29 29 28 28 28 28 27 27 27 28
22 22 22 22 22 22 23 23 24 24 24 24 24 25 25 25 25 25 24 25 25 25 25 25 25 25 26 26 25 25 26 27 27 27 27 27 27 26 26 26 26 26 28
21 21 21 21 22 21 21 21 22 21 22 22 22 23 24 24 24 24 24 24 23 23 23 23 23 23 24 24 24 25 25 25 25 26 26 25 25 24 24 25 25 27 28
21 21 21 21 21 21 20 20 21 20 20 21 21 22 22 22 23 23 23 24 24 23 23 22 22 22 22 22 22 23 23 24 24 24 24 24 23 23 23 24 25 26 28
21 21 20 21 21 20 20 20 20 20 19 19 20 21 21 21 22 23 23 23 23 23 22 22 22 22 22 22 22 22 23 23 22 22 22 22 22 23 23 23 24 25 26
21 21 21 20 20 20 20 19 19 18 18 18 19 20 20 20 21 22 22 23 23 23 22 21 21 21 21 22 22 21 21 20 20 20 20 20 21 21 21 22 23 25 25
20 20 20 19 19 19 20 19 19 19 18 18 19 20 20 19 20 20 20 21 21 21 20 20 19 19 20 20 20 20 19 19 19 19 19 19 20 20 21 22 23 23 24
19 19 19 19 18 18 18 18 18 18 18 17 17 18 18 18 18 19 19 20 20 20 20 19 19 18 19 19 19 18 17 17 17 17 17 18 18 18 20 21 22 22 23
17 17 17 18 18 18 18 18 18 17 17 17 17 17 18 18 18 18 19 19 19 20 19 18 18 17 18 17 16 15 15 16 15 15 15 16 17 18 19 20 20 21 22
17 16 17 17 17 17 17 17 18 18 18 17 18 18 18 19 19 18 18 19 19 19 18 17 17 16 16 16 15 15 14 14 15 14 15 15 16 17 18 19 19 19 21
17 17 17 17 17 17 17 17 17 18 17 17 17 18 18 19 19 19 19 19 19 19 18 17 17 17 17 16 16 15 14 13 13 13 14 14 15 15 16 17 18 19 20
17 17 17 17 17 17 17 17 17 17 17 18 18 18 18 19 19 19 18 18 19 19 18 18 17 17 17 16 15 14 13 13 13 13 13 12 12 13 14 16 17 18 18
17 17 17 17 17 17 17 17 17 17 17 17 17 18 18 18 18 19 18 18 18 18 17 17 16 16 16 15 14 13 13 12 12 12 12 11 12 13 14 15 15 16 16
17 17 17 17 17 17 16 16 16 17 17 17 17 17 18 18 18 19 18 18 18 17 17 16 16 15 15 14 13 13 13 12 12 11 11 12 12 13 13 14 14 14 14
Wind_Direction
277 274 272 269 267 268 266 265 264 264 262 258 256 256 255 256 255 255 255 253 253 253 254 256 256 255 254 257 258 259 260 261 263 264 264 265 267 267 267 269 271 271 274
276 274 271 269 268 268 267 265 265 264 261 258 256 255 254 255 255 255 254 252 253 253 254 255 254 253 254 256 257 258 259 260 263 263 264 265 267 267 266 267 271 273 276
275 274 270 269 268 266 265 264 264 262 260 257 256 256 256 255 256 255 254 253 252 253 252 252 252 253 253 255 256 257 259 260 262 263 264 265 267 267 266 268 271 275 276
275 272 270 268 266 264 264 263 263 261 259 257 256 256 256 255 255 254 253 252 251 251 250 251 252 254 253 255 256 257 259 258 261 262 263 265 267 267 268 269 271 273 275
274 271 269 267 267 266 264 263 262 261 259 258 258 257 255 255 254 253 252 251 251 251 251 251 252 252 252 254 256 257 256 258 260 262 263 265 267 269 269 270 270 273 276
274 272 269 266 266 266 264 263 262 260 258 258 258 256 254 253 253 251 251 250 250 250 250 250 250 249 251 254 255 254 256 259 261 263 265 267 270 270 271 271 272 274 276
273 271 269 266 265 264 264 261 261 259 258 257 256 254 252 252 251 251 249 249 249 249 249 250 250 249 250 252 254 255 258 260 263 264 266 268 269 270 270 271 272 274 276
273 271 270 267 264 262 262 261 260 257 257 256 255 252 253 252 251 250 247 249 249 248 249 249 248 247 248 252 255 258 259 260 262 264 266 266 268 270 270 272 273 275 278
272 270 268 266 264 262 261 258 257 257 257 257 254 252 254 252 250 250 248 249 248 247 247 247 247 247 249 253 255 257 257 259 261 261 263 265 268 270 271 273 275 277 279
271 269 266 263 262 260 260 259 256 256 257 255 250 252 250 248 247 249 249 250 246 243 244 245 246 246 249 252 254 257 257 257 257 260 264 266 268 271 273 274 275 276 279
270 267 263 261 260 258 256 257 254 254 255 251 249 250 249 248 248 248 247 247 244 242 243 242 244 245 248 250 254 255 256 257 258 262 264 266 269 271 273 275 276 279 282
268 266 263 259 258 256 256 257 256 253 253 251 250 250 249 248 245 242 244 245 243 244 244 245 245 246 248 249 250 253 255 259 261 263 266 268 270 272 274 275 278 281 284
266 264 262 259 260 258 256 257 255 251 250 251 250 248 246 243 242 241 241 243 243 244 246 247 246 247 247 248 250 254 257 260 262 264 266 269 270 271 273 275 278 282 286
261 261 261 261 261 260 256 257 254 251 251 251 250 245 243 240 239 240 241 244 243 242 244 244 244 245 247 248 250 255 259 261 263 264 265 267 268 271 274 277 281 284 287
260 261 262 262 261 260 257 255 253 251 253 250 246 242 240 239 240 242 242 242 240 240 239 240 241 244 247 249 254 258 260 260 260 261 262 264 269 273 275 277 281 286 288
259 260 261 261 260 257 254 253 250 249 251 249 243 242 242 241 240 239 240 240 238 237 238 240 242 246 249 251 255 260 261 261 262 262 261 265 270 272 275 279 283 287 289
259 260 260 258 257 255 252 250 249 250 250 248 243 241 240 239 239 239 240 238 237 237 240 242 245 246 249 252 257 260 261 260 259 261 263 267 272 274 277 281 284 287 291
260 261 260 258 255 251 247 246 247 248 247 246 244 241 239 238 238 237 236 236 236 237 238 241 245 247 248 252 256 257 256 256 258 262 265 269 273 276 278 282 285 289 293
262 260 258 256 252 248 244 243 246 248 247 245 243 240 238 236 235 234 234 235 235 235 235 240 246 248 247 248 250 251 252 255 260 264 267 271 275 276 278 281 286 290 294
261 259 256 253 250 246 242 243 245 246 245 243 240 239 237 235 234 233 232 231 231 232 236 239 242 245 245 246 248 250 253 256 261 265 270 273 276 276 279 283 287 291 293
258 256 253 251 247 244 242 242 243 243 241 240 240 239 234 232 232 231 230 231 231 233 235 237 240 242 243 244 246 251 255 256 258 264 269 272 274 277 281 287 292 294 297
255 255 252 248 244 242 240 241 242 240 238 238 239 236 232 230 230 230 232 233 235 234 233 236 239 238 238 239 244 250 254 257 258 260 265 270 275 280 286 290 293 296 300
254 252 249 244 241 240 240 241 239 236 235 237 236 235 232 229 228 230 232 233 234 232 231 235 239 237 236 239 242 247 250 253 256 260 266 272 278 284 289 292 295 299 302
252 249 246 241 239 239 239 239 238 237 236 235 233 231 229 227 227 228 228 230 233 233 234 238 239 237 237 240 241 245 249 253 258 264 270 275 280 286 291 297 300 302 305
251 248 244 239 239 239 239 239 236 235 233 232 229 227 225 222 223 224 227 231 231 232 234 237 238 238 237 239 241 245 249 253 260 266 270 277 282 287 293 297 300 304 309
247 242 241 239 237 237 235 233 231 230 229 227 224 223 221 221 223 225 228 230 230 231 231 232 233 234 236 240 243 245 246 250 256 262 271 277 282 290 296 299 300 304 310
Height
5551 5551 5551 5552 5553 5554 5555 5557 5558 5559 5561 5563 5566 5569 5573 5576 5579 5582 5586 5589 5593 5597 5600 5604 5607 5611 5614 5618 5621 5624 5627 5629 5632 5636 5639 5640 5642 5644 5645 5646 5646 5647 5647
5541 5541 5541 5542 5543 5544 5545 5547 5548 5549 5550 5552 5555 5558 5561 5564 5567 5570 5573 5577 5581 5585 5589 5592 5596 5599 5603 5606 5609 5613 5616 5618 5621 5625 5628 5629 5631 5633 5634 5635 5636 5636 5636
5531 5531 5531 5532 5533 5534 5536 5537 5537 5539 5540 5542 5544 5547 5550 5553 5556 5559 5561 5566 5569 5574 5577 5581 5585 5588 5592 5595 5599 5602 5604 5608 5610 5613 5617 5619 5620 5622 5623 5625 5625 5625 5625
5522 5522 5522 5522 5524 5525 5526 5527 5528 5529 5530 5532 5535 5537 5540 5542 5545 5548 5551 5555 5559 5563 5566 5570 5574 5577 5581 5585 5588 5591 5593 5597 5599 5602 5605 5608 5609 5611 5612 5614 5615 5615 5615
5513 5512 5513 5513 5514 5515 5516 5517 5518 5520 5521 5523 5525 5527 5529 5531 5535 5538 5541 5545 5549 5553 5556 5560 5563 5567 5571 5574 5577 5580 5583 5586 5589 5592 5595 5597 5599 5601 5602 5603 5604 5604 5604
5503 5503 5503 5504 5505 5506 5507 5508 5509 5511 5512 5514 5515 5517 5519 5522 5525 5529 5532 5535 5539 5542 5546 5550 5553 5557 5561 5565 5567 5570 5574 5577 5580 5582 5585 5587 5589 5590 5591 5592 5593 5594 5594
5493 5493 5494 5494 5496 5497 5498 5499 5500 5502 5503 5505 5506 5507 5510 5513 5516 5519 5522 5526 5529 5533 5537 5540 5544 5548 5552 5555 5558 5561 5565 5567 5570 5573 5576 5578 5579 5580 5581 5582 5582 5582 5583
5483 5483 5484 5485 5486 5487 5488 5490 5491 5493 5494 5496 5497 5499 5501 5504 5507 5510 5514 5517 5521 5524 5528 5532 5536 5540 5543 5547 5550 5553 5556 5558 5561 5563 5566 5568 5568 5569 5570 5571 5571 5572 5572
5472 5473 5474 5475 5476 5478 5480 5481 5483 5484 5486 5488 5489 5491 5493 5496 5499 5502 5505 5509 5513 5516 5520 5524 5528 5531 5535 5538 5541 5544 5547 5550 5552 5554 5556 5557 5558 5560 5561 5561 5562 5562 5562
5464 5464 5465 5466 5468 5470 5472 5473 5475 5477 5478 5480 5482 5484 5485 5488 5491 5494 5498 5501 5505 5508 5512 5516 5519 5523 5527 5529 5533 5536 5539 5541 5543 5544 5546 5548 5549 5550 5551 5552 5552 5552 5552
5455 5456 5457 5459 5460 5462 5464 5466 5468 5470 5471 5473 5475 5477 5479 5481 5484 5487 5490 5494 5497 5501 5504 5508 5512 5516 5519 5522 5525 5528 5530 5532 5534 5536 5538 5540 5541 5541 5542 5543 5543 5543 5543
5448 5449 5450 5451 5453 5456 5458 5459 5461 5463 5464 5466 5468 5470 5473 5475 5477 5480 5483 5487 5490 5494 5498 5502 5505 5508 5511 5514 5517 5520 5522 5524 5526 5528 5530 5531 5532 5533 5534 5534 5534 5534 5534
5442 5442 5444 5445 5447 5449 5451 5453 5454 5456 5457 5459 5461 5464 5466 5468 5471 5474 5477 5480 5484 5487 5491 5495 5498 5501 5504 5507 5510 5512 5514 5516 5518 5520 5522 5523 5524 5524 5525 5525 5525 5525 5525
5436 5437 5439 5440 5441 5443 5445 5446 5448 5450 5451 5453 5454 5457 5460 5462 5465 5469 5472 5475 5478 5481 5485 5488 5491 5494 5497 5500 5503 5505 5507 5509 5511 5512 5513 5515 5515 5516 5517 5517 5517 5517 5517
5431 5432 5433 5434 5436 5437 5438 5440 5442 5443 5444 5447 5449 5451 5454 5457 5460 5463 5466 5469 5472 5476 5479 5482 5485 5488 5491 5493 5496 5498 5500 5501 5503 5504 5506 5507 5508 5508 5509 5510 5510 5510 5509
5426 5427 5428 5429 5430 5432 5433 5435 5435 5437 5438 5440 5442 5445 5448 5451 5454 5457 5461 5464 5467 5470 5474 5477 5479 5482 5485 5487 5490 5491 5493 5495 5496 5497 5499 5500 5501 5502 5502 5502 5502 5502 5501
5420 5421 5423 5424 5425 5426 5428 5429 5431 5432 5433 5435 5437 5440 5443 5445 5449 5452 5455 5458 5461 5464 5468 5471 5474 5476 5479 5481 5483 5485 5487 5488 5490 5491 5492 5493 5494 5495 5495 5495 5495 5494 5493
5414 5416 5417 5418 5419 5420 5422 5423 5425 5427 5429 5430 5432 5434 5437 5440 5443 5446 5449 5453 5456 5459 5462 5465 5468 5471 5473 5476 5478 5479 5481 5483 5484 5485 5486 5487 5488 5488 5488 5488 5488 5487 5486
5408 5410 5411 5412 5413 5414 5416 5418 5420 5422 5424 5426 5428 5430 5432 5435 5438 5441 5444 5448 5451 5454 5457 5461 5463 5465 5468 5470 5472 5474 5476 5477 5478 5479 5480 5481 5481 5482 5482 5482 5481 5480 5479
5402 5403 5405 5406 5407 5409 5411 5413 5415 5417 5419 5421 5423 5426 5428 5431 5434 5437 5439 5443 5446 5450 5453 5456 5458 5460 5463 5465 5467 5468 5470 5472 5473 5474 5475 5475 5476 5476 5476 5475 5475 5474 5472
5397 5398 5399 5401 5402 5404 5406 5408 5410 5412 5414 5417 5419 5421 5424 5426 5429 5432 5435 5438 5442 5445 5448 5451 5453 5455 5458 5460 5462 5464 5465 5467 5468 5469 5470 5470 5470 5470 5470 5469 5468 5467 5466
5392 5393 5394 5395 5397 5399 5401 5403 5405 5407 5409 5412 5414 5417 5419 5422 5425 5428 5431 5434 5437 5441 5444 5446 5449 5451 5453 5455 5458 5460 5461 5462 5463 5464 5465 5465 5465 5465 5464 5464 5462 5461 5460
5386 5387 5389 5390 5392 5394 5396 5398 5400 5402 5405 5407 5410 5413 5415 5418 5421 5424 5427 5430 5433 5437 5439 5442 5445 5447 5449 5451 5453 5455 5457 5458 5459 5459 5460 5460 5460 5460 5459 5458 5457 5456 5454
5381 5382 5383 5385 5387 5389 5391 5393 5395 5397 5400 5402 5405 5408 5411 5414 5417 5420 5423 5426 5429 5432 5435 5438 5440 5443 5445 5447 5449 5450 5452 5453 5454 5455 5455 5456 5456 5455 5455 5454 5452 5451 5449
5375 5376 5378 5380 5381 5383 5385 5387 5389 5392 5394 5397 5400 5403 5406 5409 5413 5416 5419 5422 5425 5428 5431 5433 5436 5438 5440 5443 5444 5446 5448 5449 5450 5451 5451 5452 5452 5451 5450 5449 5448 5446 5445
5369 5371 5373 5374 5376 5378 5380 5382 5384 5387 5389 5392 5395 5398 5402 5405 5408 5412 5415 5418 5421 5424 5427 5429 5432 5434 5437 5439 5440 5442 5444 5445 5446 5447 5447 5447 5447 5447 5446 5445 5444 5443 5441